Freeland, MI

7:23 AM EDT on July 28, 2016 (GMT -0400)
MBS International

Weather History for KMBS - March, 2013

Change the Weather History Date:

Friday, March 22, 2013

  Actual Average Record
Temperature  
Mean Temperature 31 °F 36 °F  
Max Temperature 37 °F 45 °F 75 °F (2012)
Min Temperature 25 °F 27 °F 14 °F (2002)
Degree Days  
Heating Degree Days 34    
Month to date heating degree days  
Since 1 July heating degree days  
Cooling Degree Days 0    
Month to date cooling degree days  
Year to date cooling degree days  
Moisture  
Dew Point 19 °F    
Average Humidity 66    
Maximum Humidity 75    
Minimum Humidity 53    
Precipitation  
Precipitation 0.00 in 0.07 in 0.50 in (2007)
Month to date precipitation 1.44  
Year to date precipitation 4.76  
Snow  
Snow 0.00 in - - ()
Month to date snowfall  
Since 1 July snowfall  
Snow Depth -    
Sea Level Pressure  
Sea Level Pressure 29.99 in    
Wind  
Wind Speed 10 mph (WNW)    
Max Wind Speed 14 mph    
Max Gust Speed -    
Visibility 10 miles    
Events      
T = Trace of Precipitation, MM = Missing Value Source: NWS Daily Summary

Daily Weather History Graph

Daily Weather History Graph

Search for Another Location

Airport or City:

Trip Planner

Search our weather history database for the weather conditions in past years. The results will help you decide how hot, cold, wet, or windy it might be!

Date:

Astronomy

Mar. 22, 2013 Rise Set
Actual Time 7:35 AM EDT 7:51 PM EDT
Civil Twilight 7:06 AM EDT 8:20 PM EDT
Nautical Twilight 6:33 AM EDT 8:53 PM EDT
Astronomical Twilight 5:58 AM EDT 9:28 PM EDT
Moon 3:10 PM EDT (3/22) 4:43 AM EDT (3/22)
Length of Visible Light 13h 13m
Length of Day
12h 15m
Waxing Gibbous, 77% of the Moon is Illuminated
Mar 22
Waxing Gibbous
Mar 27
Full
Apr 3
Last Quarter
Apr 10
New
Apr 18
First Quarter

Hourly Weather History & Observations

Time (EDT) Temp. Windchill Dew Point Humidity Pressure Visibility Wind Dir Wind Speed Gust Speed Precip Events Conditions
12:53 AM 27.0 °F 18.0 °F 17.1 °F 66% 29.94 in 10.0 mi NW 9.2 mph - N/A   Overcast
1:53 AM 26.1 °F 16.2 °F 17.1 °F 69% 29.95 in 10.0 mi NNW 10.4 mph - N/A   Overcast
2:53 AM 26.1 °F 16.8 °F 16.0 °F 66% 29.96 in 10.0 mi NW 9.2 mph - N/A   Overcast
3:53 AM 26.1 °F 16.2 °F 16.0 °F 66% 29.97 in 10.0 mi WNW 10.4 mph - N/A   Overcast
4:53 AM 25.0 °F 13.6 °F 16.0 °F 69% 29.96 in 10.0 mi WNW 12.7 mph - N/A   Overcast
5:53 AM 25.0 °F 14.2 °F 16.0 °F 69% 29.97 in 10.0 mi West 11.5 mph - N/A   Overcast
6:53 AM 25.0 °F 15.5 °F 16.0 °F 69% 29.98 in 10.0 mi West 9.2 mph - N/A   Overcast
7:53 AM 25.0 °F 14.8 °F 16.0 °F 69% 29.99 in 10.0 mi West 10.4 mph - N/A   Overcast
8:53 AM 25.0 °F 13.6 °F 16.0 °F 69% 30.00 in 10.0 mi West 12.7 mph - N/A   Overcast
9:53 AM 26.1 °F 15.6 °F 16.0 °F 66% 30.00 in 10.0 mi West 11.5 mph - N/A   Overcast
10:53 AM 27.0 °F 16.7 °F 17.1 °F 66% 30.00 in 10.0 mi WNW 11.5 mph - N/A   Overcast
11:53 AM 28.9 °F 21.1 °F 19.0 °F 67% 29.99 in 10.0 mi WNW 8.1 mph - N/A   Overcast
12:53 PM 30.9 °F 22.8 °F 19.9 °F 64% 29.99 in 10.0 mi West 9.2 mph - N/A   Overcast
1:53 PM 32.0 °F 23.0 °F 19.9 °F 61% 29.99 in 10.0 mi West 11.5 mph - N/A   Overcast
2:53 PM 34.0 °F 26.0 °F 21.9 °F 61% 29.99 in 10.0 mi West 10.4 mph - N/A   Overcast
3:09 PM 33.8 °F 24.3 °F 21.2 °F 60% 29.96 in 10.0 mi West 13.8 mph - N/A   Overcast
3:53 PM 35.1 °F 26.9 °F 21.0 °F 57% 29.98 in 10.0 mi WSW 11.5 mph - N/A   Mostly Cloudy
4:53 PM 36.0 °F 28.0 °F 21.9 °F 57% 29.97 in 10.0 mi SW 11.5 mph - N/A   Mostly Cloudy
5:53 PM 37.9 °F 31.5 °F 21.9 °F 53% 29.97 in 10.0 mi WNW 9.2 mph - N/A   Mostly Cloudy
6:53 PM 35.1 °F 27.9 °F 23.0 °F 61% 29.99 in 10.0 mi NW 9.2 mph - N/A   Overcast
7:53 PM 33.1 °F 26.1 °F 21.9 °F 64% 30.01 in 10.0 mi NW 8.1 mph - N/A   Clear
8:53 PM 30.9 °F 24.3 °F 21.9 °F 69% 30.03 in 10.0 mi NNW 6.9 mph - N/A   Clear
9:53 PM 30.0 °F 24.1 °F 21.9 °F 72% 30.04 in 10.0 mi NW 5.8 mph - N/A   Clear
10:53 PM 28.9 °F 22.8 °F 21.9 °F 75% 30.04 in 10.0 mi WNW 5.8 mph - N/A   Clear
11:28 PM 30.2 °F 24.3 °F 21.2 °F 69% 30.02 in 10.0 mi NW 5.8 mph - N/A   Mostly Cloudy
11:53 PM 30.9 °F 27.5 °F 23.0 °F 72% 30.05 in 10.0 mi NW 3.5 mph - N/A   Overcast